User: anonymous   Login
Location: Unspecified
(0.0000°N, 0.0000°E)
Time: 04:04:39
(UTC+02:00)
Language:

Palapa 6 Rocket - Orbit

View from above orbital plane
View from above orbital plane
View from above satellite
View from above satellite

Ground track
Ground track

The orbit data is extracted from the following two-line orbital elements,

1 20571U 90034B   15088.09807016  .00002460  00000-0  32700-3 0  9991
2 20571 022.7471 342.4915 0513505 164.0049 338.9040 14.10722545277319
Epoch (UTC): 29 March 2015 02:21:13
Eccentricity: 0.0513505
inclination: 22.7471°
perigee height: 485 km
apogee height: 1228 km
right ascension of ascending node: 342.4915°
argument of perigee: 164.0049°
revolutions per day: 14.10722545
mean anomaly at epoch: 338.9040°
orbit number at epoch: 27731

The dashed part of the orbit path shows where the satellite is in the earth's shadow,  

DLR